Location: Gettysburg
(39.8310°N, 77.2310°W)
Time: 15:08:36
(UTC-04:00)

ATLAS 2AS CENTAUR R/B - Visible Passes

Search period start: 01 September 2014 00:00
Search period end: 11 September 2014 00:00
Orbit: 919 x 1293 km, 63.7° (Epoch: 27 August)

Date Brightness Start Highest point End Pass type
(mag) Time Alt. Az. Time Alt. Az. Time Alt. Az.
01 Sep 3.1 20:06:34 10° NNW 20:14:42 83° ENE 20:22:32 10° SE visible
01 Sep 5.0 21:59:10 10° WNW 22:04:49 21° WSW 22:10:18 10° SSW visible
02 Sep 4.4 21:13:29 10° NW 21:20:31 34° WSW 21:27:17 10° S visible
03 Sep 3.8 20:28:17 10° NW 20:36:04 53° WSW 20:43:32 10° S visible
04 Sep 5.3 21:36:59 10° WNW 21:41:14 16° WSW 21:45:25 10° SW visible
05 Sep 5.0 20:50:44 10° NW 20:57:01 26° WSW 21:03:07 10° SSW visible
06 Sep 4.4 20:05:17 10° NW 20:12:40 41° WSW 20:19:46 10° S visible
07 Sep 5.8 21:16:17 10° W 21:17:37 11° W 21:18:56 10° WSW visible
08 Sep 5.4 20:28:14 10° WNW 20:33:29 19° WSW 20:38:36 10° SSW visible
09 Sep 5.0 19:42:24 10° NW 19:49:12 31° WSW 19:55:47 10° SSW visible
